Location: Mountain Grove
(34.0887°N, 86.6172°W)
Time: 21:24:46
(UTC+00:00)

SeaSat 1 - Pass Details

Date: 14 July 2020
Orbit: 744 x 747 km, 108.0° (Epoch: 08 August)

Event Time Altitude Azimuth Distance (km) Brightness Sun altitude
Rises 07:17:56 0° 26° (NNE) 3,194 6.9 -30.7°
Reaches altitude 10° 07:20:13 10° 29° (NNE) 2,267 5.8 -30.5°
Enters shadow 07:24:06 54° 50° (NE) 906 3.0 -30.2°
